World > North America > United States > New York

Hourly West Valley Falls, NY Regional Weather

Feedback E-mail the Weather

Quick WX

West Valley Falls, NY Weather Maps

°F °C°F °C
West Valley Falls Weather Map
UTC Time: 7/2/2022, 02:27
Your Time:

West Valley Falls, NY Regional Weather

Expires:202207020300;;525832
ASUS41 KALY 020210
RWRALY

NEW YORK STATE HOURLY WEATHER ROUNDUP
NATIONAL WEATHER SERVICE ALBANY NY
1000 PM EDT FRI JUL 01 2022

NOTE: "FAIR" INDICATES FEW OR NO CLOUDS BELOW 12,000 FEET WITH NO
SIGNIFICANT WEATHER AND/OR NO OBSTRUCTIONS TO VISIBILITY.


NYZ032-033-038>043-046>054-057>066-NYZ062>081-082-084-020300-
EAST

  
CITY           SKY/WX    TMP DP  RH WIND       PRES   REMARKS
ALBANY         TSTM      83  65  54 S6        29.87R                  
GLENS FALLS    CLOUDY    79  65  62 SW16G22   29.86R                  
POUGHKEEPSIE   MOCLDY    84  67  56 SW8       29.90R                  
NEWBURGH       CLEAR     81  68  65 W5        29.93R                  
MONTGOMERY     PTCLDY    78  66  66 SW8       29.92R                  
WHITE PLAINS   PTCLDY    81  70  69 VRB3      29.94R                  
ISLIP          MOCLDY    74  69  85 SW16G26   29.95S                  
NEW YORK CITY  MOCLDY    85  66  53 SW15G25   29.92S                  
CENTRAL PARK   PTCLDY    83  68  60 VRB5      29.95S                  
$$


SKY/WX - Weather  TMP - Temperature  DP - Dew Point  RH - Humidity
WIND - Wind Direction/Speed PRES - Barometric Pressure VSB - Visibility
WCI - Wind Chill Index E13G22 Wind - East Wind 13 mph/Gusts of 22 mph

Trending Headlines

West Valley Falls Radar Loop



West Valley Falls Quick Facts


National Two Day Weather Forecast


E-mail the West Valley Falls Weather Forecast

Voice your opinion or tell us about page issues...